KINEIS-2C

Last updated on Mon Dec 15 2025 00:02:49 GMT+0000 (Coordinated Universal Time)

1 62929U 25028B 25348.09565001 .00002022 00000+0 32784-3 0 9995 2 62929 98.0230 39.3616 0000937 177.9976 182.1235 14.72283729 45371
UTC large
Height (km)
Speed (km/s)
/
Latitude / Longitude
Inclination (degrees)
Orbital Period (minutes)
Azimuth
Elevation
Range (km)
Doppler Factor

Next 0 passes for location: London (51.5072 / 0.1276)

Sorry there are no passes over London.